Location: Unspecified
(51.5147°N, 7.4673°E)
Time: 02:41:36
(UTC+01:00)

A-11 Canister half - Pass Details

Date: 17 February 2026
Orbit: 1512 x 1687 km, 47.2° (Epoch: 8 March)

Event Time Altitude Azimuth Distance (km) Brightness Sun altitude
Rises 19:48:00 0° 188° (S) 4,929 11.7 -19.1°
Reaches altitude 10° 19:52:13 10° 174° (S) 3,942 11.0 -19.8°
Enters shadow 19:58:48 21° 132° (SE) 3,149 10.2 -20.8°
Maximum altitude 19:59:03 21° 130° (SE) 3,147 - -20.8°
Drops below altitude 10° 20:05:48 10° 87° (E) 3,905 - -21.9°
Sets 20:09:55 0° 73° (ENE) 4,871 - -22.5°
